,,,PA_Meas_PMT16A,,PR_Meas_QMR101_102,,RH_Meas_QMH101,,SR_Meas_QMS101,,TA_Meas_QMH101,,GenWind,,GenWind,
date,time,status,PA,status,PR,status,RH,status,SR,status,TA,status,DirAvg,status,SpdAvg,
2014-08-04, 00:00:05,VALID,1009.66,VALID,0,VALID,99.0662,VALID,0,VALID,25.1752,VALID,202,VALID,0,
2014-08-04, 00:01:05,VALID,1009.65,VALID,0,VALID,99.1577,VALID,0,VALID,25.1557,VALID,202,VALID,0,
2014-08-04, 00:02:05,VALID,1009.63,VALID,0,VALID,99.2492,VALID,0.112112,VALID,25.1752,VALID,202,VALID,0,
2014-08-04, 00:03:05,VALID,1009.6,VALID,0,VALID,99.3636,VALID,0,VALID,25.1148,VALID,202,VALID,0,
2014-08-04, 00:04:05,VALID,1009.6,VALID,0,VALID,99.4703,VALID,0.112112,VALID,25.1362,VALID,202,VALID,0,
2014-08-04, 00:05:05,VALID,1009.61,VALID,0,VALID,99.4932,VALID,0.112112,VALID,25.1167,VALID,202,VALID,0,
2014-08-04, 00:06:05,VALID,1009.56,VALID,0,VALID,99.6152,VALID,0.112112,VALID,25.1167,VALID,202,VALID,0,
2014-08-04, 00:07:05,VALID,1009.61,VALID,0,VALID,99.7372,VALID,0,VALID,25.1167,VALID,202,VALID,0,
2014-08-04, 00:08:05,VALID,1009.59,VALID,0,VALID,99.844,VALID,0.112112,VALID,25.0954,VALID,202,VALID,0,
2014-08-04, 00:09:05,VALID,1009.59,VALID,0,VALID,99.9202,VALID,0.112112,VALID,25.0759,VALID,202,VALID,0,
2014-08-04, 00:10:05,VALID,1009.6,VALID,0,VALID,100.012,VALID,0.112112,VALID,25.0759,VALID,202,VALID,0,
2014-08-04, 00:11:05,VALID,1009.58,VALID,0,VALID,100.18,VALID,0,VALID,25.0564,VALID,202,VALID,0,
2014-08-04, 00:12:05,VALID,1009.57,VALID,0,VALID,100.37,VALID,0,VALID,25.0778,VALID,202,VALID,0,
2014-08-04, 00:13:05,VALID,1009.58,VALID,0,VALID,100.408,VALID,0.112112,VALID,25.0583,VALID,202,VALID,0,
2014-08-04, 00:14:05,VALID,1009.58,VALID,0,VALID,100.363,VALID,0.112112,VALID,25.0174,VALID,202,VALID,0,
2014-08-04, 00:15:05,VALID,1009.55,VALID,0,VALID,100.416,VALID,0,VALID,24.9784,VALID,202,VALID,0,
2014-08-04, 00:16:05,VALID,1009.54,VALID,0,VALID,100.607,VALID,0.112112,VALID,24.9589,VALID,202,VALID,0,
2014-08-04, 00:17:05,VALID,1009.57,VALID,0,VALID,100.843,VALID,0,VALID,24.9394,VALID,202,VALID,0,
2014-08-04, 00:18:05,VALID,1009.56,VALID,0,VALID,101.087,VALID,0,VALID,24.9218,VALID,202,VALID,0,
2014-08-04, 00:19:05,VALID,1009.54,VALID,0,VALID,101.308,VALID,0.112112,VALID,24.9199,VALID,202,VALID,0,
2014-08-04, 00:20:05,VALID,1009.55,VALID,0,VALID,101.651,VALID,0.112112,VALID,24.9199,VALID,202,VALID,0,
2014-08-04, 00:21:05,VALID,1009.51,VALID,0,VALID,101.918,VALID,0,VALID,24.9199,VALID,207,VALID,0,
2014-08-04, 00:22:05,VALID,1009.51,VALID,0,VALID,102.055,VALID,0,VALID,24.9608,VALID,207,VALID,0,
2014-08-04, 00:23:05,VALID,1009.53,VALID,0,VALID,102.002,VALID,0,VALID,24.9413,VALID,207,VALID,0,
2014-08-04, 00:24:05,VALID,1009.48,VALID,0,VALID,101.956,VALID,0.112112,VALID,24.8809,VALID,207,VALID,0,
2014-08-04, 00:25:05,VALID,1009.47,VALID,0,VALID,102.109,VALID,0.112112,VALID,24.8809,VALID,207,VALID,0,
2014-08-04, 00:26:05,VALID,1009.49,VALID,0,VALID,102.269,VALID,0.112112,VALID,24.8828,VALID,207,VALID,0,
2014-08-04, 00:27:05,VALID,1009.49,VALID,0,VALID,102.414,VALID,0,VALID,24.8828,VALID,207,VALID,0,
2014-08-04, 00:28:05,VALID,1009.48,VALID,0,VALID,102.46,VALID,0,VALID,24.8828,VALID,207,VALID,0,
2014-08-04, 00:29:05,VALID,1009.5,VALID,0,VALID,102.582,VALID,0,VALID,24.8633,VALID,207,VALID,0,
2014-08-04, 00:30:05,VALID,1009.47,VALID,0,VALID,102.688,VALID,0,VALID,24.8438,VALID,207,VALID,0,
2014-08-04, 00:31:05,VALID,1009.47,VALID,0,VALID,102.81,VALID,0,VALID,24.8438,VALID,207,VALID,0,
2014-08-04, 00:32:05,VALID,1009.47,VALID,0,VALID,102.856,VALID,0,VALID,24.8225,VALID,207,VALID,0,
2014-08-04, 00:33:05,VALID,1009.46,VALID,0,VALID,102.894,VALID,0,VALID,24.8225,VALID,207,VALID,0,
2014-08-04, 00:34:05,VALID,1009.48,VALID,0,VALID,102.94,VALID,0,VALID,24.8244,VALID,207,VALID,0,
2014-08-04, 00:35:05,VALID,1009.48,VALID,0,VALID,103.07,VALID,0,VALID,24.7854,VALID,207,VALID,0,
2014-08-04, 00:36:05,VALID,1009.46,VALID,0,VALID,103.192,VALID,0,VALID,24.8049,VALID,207,VALID,0,
2014-08-04, 00:37:05,VALID,1009.48,VALID,0,VALID,103.337,VALID,0,VALID,24.7854,VALID,207,VALID,0,
2014-08-04, 00:38:05,VALID,1009.47,VALID,0,VALID,103.466,VALID,0,VALID,24.7854,VALID,207,VALID,0,
2014-08-04, 00:39:05,VALID,1009.49,VALID,0,VALID,103.573,VALID,0,VALID,24.7659,VALID,68,VALID,0,
2014-08-04, 00:40:05,VALID,1009.47,VALID,0,VALID,103.703,VALID,0.112112,VALID,24.7659,VALID,68,VALID,0,
2014-08-04, 00:41:05,VALID,1009.47,VALID,0,VALID,103.802,VALID,0,VALID,24.7659,VALID,68,VALID,0,
2014-08-04, 00:42:05,VALID,1009.46,VALID,0,VALID,103.901,VALID,0,VALID,24.7445,VALID,68,VALID,0,
2014-08-04, 00:43:05,VALID,1009.46,VALID,0,VALID,103.977,VALID,0,VALID,24.7464,VALID,68,VALID,0,
2014-08-04, 00:44:05,VALID,1009.44,VALID,0,VALID,104,VALID,0,VALID,24.7483,VALID,68,VALID,0,
2014-08-04, 00:45:05,VALID,1009.45,VALID,0,VALID,104,VALID,0,VALID,24.7464,VALID,68,VALID,0,
2014-08-04, 00:46:05,VALID,1009.44,VALID,0,VALID,104,VALID,0,VALID,24.7269,VALID,68,VALID,0,
2014-08-04, 00:47:05,VALID,1009.46,VALID,0,VALID,104,VALID,0,VALID,24.7055,VALID,68,VALID,0,
2014-08-04, 00:48:05,VALID,1009.43,VALID,0,VALID,104,VALID,0,VALID,24.7269,VALID,68,VALID,0,
2014-08-04, 00:49:05,VALID,1009.42,VALID,0,VALID,104,VALID,0,VALID,24.7074,VALID,68,VALID,0,
2014-08-04, 00:50:05,VALID,1009.42,VALID,0,VALID,104,VALID,0,VALID,24.7074,VALID,68,VALID,0,
2014-08-04, 00:51:05,VALID,1009.42,VALID,0,VALID,104,VALID,0,VALID,24.7074,VALID,68,VALID,0,
2014-08-04, 00:52:05,VALID,1009.41,VALID,0,VALID,104,VALID,0,VALID,24.7074,VALID,68,VALID,0,
2014-08-04, 00:53:05,VALID,1009.42,VALID,0,VALID,104,VALID,0,VALID,24.6879,VALID,68,VALID,0,
2014-08-04, 00:54:05,VALID,1009.39,VALID,0,VALID,104,VALID,0,VALID,24.6879,VALID,68,VALID,0,
2014-08-04, 00:55:05,VALID,1009.38,VALID,0,VALID,104,VALID,0,VALID,24.6684,VALID,68,VALID,0,
2014-08-04, 00:56:05,VALID,1009.37,VALID,0,VALID,104,VALID,0,VALID,24.6684,VALID,68,VALID,0,
2014-08-04, 00:57:05,VALID,1009.38,VALID,0,VALID,104,VALID,0,VALID,24.6684,VALID,68,VALID,0,
2014-08-04, 00:58:05,VALID,1009.35,VALID,0,VALID,104,VALID,0,VALID,24.6489,VALID,68,VALID,0,
2014-08-04, 00:59:05,VALID,1009.36,VALID,0,VALID,104,VALID,0,VALID,24.6489,VALID,53,VALID,0,
2014-08-04, 01:00:05,VALID,1009.33,VALID,0,VALID,104,VALID,0,VALID,24.6684,VALID,53,VALID,0,
2014-08-04, 01:01:05,VALID,1009.31,VALID,0,VALID,104,VALID,0,VALID,24.6276,VALID,53,VALID,0,
2014-08-04, 01:02:05,VALID,1009.26,VALID,0,VALID,104,VALID,0,VALID,24.6489,VALID,53,VALID,0,
2014-08-04, 01:03:04,VALID,1009.26,VALID,0,VALID,104,VALID,0,VALID,24.6294,VALID,53,VALID,0,
2014-08-04, 01:04:04,VALID,1009.22,VALID,0,VALID,104,VALID,0,VALID,24.6294,VALID,53,VALID,0,
2014-08-04, 01:05:04,VALID,1009.2,VALID,0,VALID,104,VALID,0,VALID,24.6508,VALID,53,VALID,0,
2014-08-04, 01:06:04,VALID,1009.17,VALID,0,VALID,104,VALID,0,VALID,24.6489,VALID,53,VALID,0,
2014-08-04, 01:07:04,VALID,1009.15,VALID,0,VALID,104,VALID,0,VALID,24.6489,VALID,53,VALID,0,
2014-08-04, 01:08:04,VALID,1009.12,VALID,0,VALID,104,VALID,0,VALID,24.6489,VALID,53,VALID,0,
2014-08-04, 01:09:04,VALID,1009.11,VALID,0,VALID,104,VALID,0,VALID,24.6684,VALID,53,VALID,0,
2014-08-04, 01:10:04,VALID,1009.09,VALID,0,VALID,104,VALID,0,VALID,24.6684,VALID,53,VALID,0,
2014-08-04, 01:11:04,VALID,1009.04,VALID,0,VALID,104,VALID,0,VALID,24.6684,VALID,53,VALID,0,
2014-08-04, 01:12:04,VALID,1009.06,VALID,0,VALID,104,VALID,0,VALID,24.6684,VALID,53,VALID,0,
2014-08-04, 01:13:04,VALID,1009.01,VALID,0,VALID,104,VALID,0,VALID,24.6684,VALID,53,VALID,0,
2014-08-04, 01:14:04,VALID,1008.98,VALID,0,VALID,104,VALID,0,VALID,24.6684,VALID,53,VALID,0,
2014-08-04, 01:15:04,VALID,1008.97,VALID,0,VALID,104,VALID,0,VALID,24.6684,VALID,53,VALID,0,
2014-08-04, 01:16:04,VALID,1008.96,VALID,0,VALID,104,VALID,0,VALID,24.6489,VALID,53,VALID,0,
2014-08-04, 01:17:04,VALID,1008.93,VALID,0,VALID,104,VALID,0,VALID,24.6489,VALID,53,VALID,0,
2014-08-04, 01:18:04,VALID,1008.9,VALID,0,VALID,104,VALID,0,VALID,24.6294,VALID,53,VALID,0,
2014-08-04, 01:19:04,VALID,1008.87,VALID,0,VALID,104,VALID,0,VALID,24.5905,VALID,53,VALID,0,
2014-08-04, 01:20:04,VALID,1008.87,VALID,0,VALID,104,VALID,0,VALID,24.5905,VALID,53,VALID,0,
2014-08-04, 01:21:04,VALID,1008.85,VALID,0,VALID,104,VALID,0,VALID,24.571,VALID,53,VALID,0,
2014-08-04, 01:22:04,VALID,1008.83,VALID,0,VALID,104,VALID,0,VALID,24.571,VALID,53,VALID,0,
2014-08-04, 01:23:04,VALID,1008.81,VALID,0,VALID,104,VALID,0,VALID,24.571,VALID,53,VALID,0,
2014-08-04, 01:24:04,VALID,1008.82,VALID,0,VALID,104,VALID,0,VALID,24.571,VALID,53,VALID,0,
2014-08-04, 01:25:04,VALID,1008.79,VALID,0,VALID,104,VALID,0,VALID,24.5515,VALID,53,VALID,0,
2014-08-04, 01:26:04,VALID,1008.8,VALID,0,VALID,104,VALID,0,VALID,24.5515,VALID,53,VALID,0,
2014-08-04, 01:27:04,VALID,1008.78,VALID,0,VALID,104,VALID,0.112112,VALID,24.5106,VALID,53,VALID,0,
2014-08-04, 01:28:04,VALID,1008.77,VALID,0,VALID,104,VALID,0.112112,VALID,24.532,VALID,53,VALID,0,
2014-08-04, 01:29:04,VALID,1008.79,VALID,0,VALID,104,VALID,0,VALID,24.5125,VALID,53,VALID,0,
2014-08-04, 01:30:04,VALID,1008.76,VALID,0,VALID,104,VALID,0.112112,VALID,24.532,VALID,53,VALID,0,
2014-08-04, 01:31:04,VALID,1008.77,VALID,0,VALID,104,VALID,0,VALID,24.5125,VALID,53,VALID,0,
2014-08-04, 01:32:04,VALID,1008.78,VALID,0,VALID,104,VALID,0,VALID,24.4717,VALID,53,VALID,0,
2014-08-04, 01:33:04,VALID,1008.8,VALID,0,VALID,104,VALID,0.112112,VALID,24.493,VALID,53,VALID,0,
2014-08-04, 01:34:04,VALID,1008.8,VALID,0,VALID,104,VALID,0,VALID,24.4522,VALID,53,VALID,0,
2014-08-04, 01:35:04,VALID,1008.83,VALID,0,VALID,104,VALID,0.112112,VALID,24.4717,VALID,53,VALID,0,
2014-08-04, 01:36:04,VALID,1008.8,VALID,0,VALID,104,VALID,0.112112,VALID,24.493,VALID,53,VALID,0,
2014-08-04, 01:37:04,VALID,1008.77,VALID,0,VALID,104,VALID,0.112112,VALID,24.493,VALID,53,VALID,0,
2014-08-04, 01:38:04,VALID,1008.8,VALID,0,VALID,104,VALID,0,VALID,24.4522,VALID,53,VALID,0,
2014-08-04, 01:39:04,VALID,1008.77,VALID,0,VALID,104,VALID,0.112112,VALID,24.4735,VALID,53,VALID,0,
2014-08-04, 01:40:04,VALID,1008.75,VALID,0,VALID,104,VALID,0.112112,VALID,24.454,VALID,53,VALID,0,
2014-08-04, 01:41:04,VALID,1008.73,VALID,0,VALID,104,VALID,0,VALID,24.4735,VALID,53,VALID,0,
2014-08-04, 01:42:04,VALID,1008.7,VALID,0,VALID,104,VALID,0.112112,VALID,24.493,VALID,53,VALID,0,
2014-08-04, 01:43:04,VALID,1008.69,VALID,0,VALID,104,VALID,0,VALID,24.5125,VALID,53,VALID,0,
2014-08-04, 01:44:04,VALID,1008.66,VALID,0,VALID,104,VALID,0,VALID,24.4911,VALID,53,VALID,0,
2014-08-04, 01:45:04,VALID,1008.65,VALID,0,VALID,104,VALID,0,VALID,24.5125,VALID,53,VALID,0,
2014-08-04, 01:46:04,VALID,1008.65,VALID,0,VALID,104,VALID,0.112112,VALID,24.5125,VALID,53,VALID,0,
2014-08-04, 01:47:04,VALID,1008.63,VALID,0,VALID,104,VALID,0.112112,VALID,24.5125,VALID,53,VALID,0,
2014-08-04, 01:48:04,VALID,1008.63,VALID,0,VALID,104,VALID,0.112112,VALID,24.5125,VALID,53,VALID,0,
2014-08-04, 01:49:04,VALID,1008.63,VALID,0,VALID,104,VALID,0.112112,VALID,24.532,VALID,53,VALID,0,
2014-08-04, 01:50:04,VALID,1008.63,VALID,0,VALID,104,VALID,0,VALID,24.5106,VALID,53,VALID,0,
2014-08-04, 01:51:04,VALID,1008.63,VALID,0,VALID,104,VALID,0.112112,VALID,24.4911,VALID,53,VALID,0,
2014-08-04, 01:52:04,VALID,1008.61,VALID,0,VALID,104,VALID,0,VALID,24.5125,VALID,53,VALID,0,
2014-08-04, 01:53:04,VALID,1008.58,VALID,0,VALID,104,VALID,0,VALID,24.532,VALID,53,VALID,0,
2014-08-04, 01:54:04,VALID,1008.59,VALID,0,VALID,104,VALID,0,VALID,24.5125,VALID,53,VALID,0,
2014-08-04, 01:55:04,VALID,1008.57,VALID,0,VALID,104,VALID,0.112112,VALID,24.5125,VALID,53,VALID,0,
2014-08-04, 01:56:04,VALID,1008.57,VALID,0,VALID,104,VALID,0.112112,VALID,24.4717,VALID,53,VALID,0,
2014-08-04, 01:57:04,VALID,1008.58,VALID,0,VALID,104,VALID,0,VALID,24.5125,VALID,53,VALID,0,
2014-08-04, 01:58:04,VALID,1008.6,VALID,0,VALID,104,VALID,0,VALID,24.4911,VALID,53,VALID,0,
2014-08-04, 01:59:04,VALID,1008.59,VALID,0,VALID,104,VALID,0,VALID,24.4911,VALID,53,VALID,0,
2014-08-04, 02:00:04,VALID,1008.58,VALID,0,VALID,104,VALID,0,VALID,24.4735,VALID,53,VALID,0,
2014-08-04, 02:01:04,VALID,1008.61,VALID,0,VALID,104,VALID,0.112112,VALID,24.454,VALID,53,VALID,0,
2014-08-04, 02:02:04,VALID,1008.59,VALID,0,VALID,104,VALID,0,VALID,24.454,VALID,53,VALID,0,
2014-08-04, 02:03:04,VALID,1008.59,VALID,0,VALID,104,VALID,0,VALID,24.4132,VALID,53,VALID,0,
2014-08-04, 02:04:04,VALID,1008.58,VALID,0,VALID,104,VALID,0,VALID,24.4345,VALID,53,VALID,0,
2014-08-04, 02:05:04,VALID,1008.59,VALID,0,VALID,104,VALID,0,VALID,24.415,VALID,53,VALID,0,
2014-08-04, 02:06:04,VALID,1008.62,VALID,0,VALID,104,VALID,0,VALID,24.415,VALID,53,VALID,0,
2014-08-04, 02:07:04,VALID,1008.61,VALID,0,VALID,104,VALID,0.112112,VALID,24.3742,VALID,53,VALID,0,
2014-08-04, 02:08:04,VALID,1008.6,VALID,0,VALID,104,VALID,0.112112,VALID,24.3742,VALID,53,VALID,0,
2014-08-04, 02:09:04,VALID,1008.62,VALID,0,VALID,104,VALID,0.112112,VALID,24.3956,VALID,53,VALID,0,
2014-08-04, 02:10:04,VALID,1008.6,VALID,0,VALID,104,VALID,0,VALID,24.3742,VALID,53,VALID,0,
2014-08-04, 02:11:04,VALID,1008.6,VALID,0,VALID,104,VALID,0,VALID,24.3742,VALID,53,VALID,0,
2014-08-04, 02:12:04,VALID,1008.63,VALID,0,VALID,104,VALID,0.112112,VALID,24.3547,VALID,53,VALID,0,
2014-08-04, 02:13:04,VALID,1008.63,VALID,0,VALID,104,VALID,0,VALID,24.3352,VALID,53,VALID,0,
2014-08-04, 02:14:04,VALID,1008.66,VALID,0,VALID,104,VALID,0,VALID,24.3371,VALID,53,VALID,0,
2014-08-04, 02:15:04,VALID,1008.64,VALID,0,VALID,104,VALID,0.112112,VALID,24.3158,VALID,53,VALID,0,
2014-08-04, 02:16:04,VALID,1008.65,VALID,0,VALID,104,VALID,0,VALID,24.3176,VALID,53,VALID,0,
2014-08-04, 02:17:04,VALID,1008.66,VALID,0,VALID,104,VALID,0.112112,VALID,24.3158,VALID,53,VALID,0,
2014-08-04, 02:18:04,VALID,1008.69,VALID,0,VALID,104,VALID,0,VALID,24.3371,VALID,53,VALID,0,
2014-08-04, 02:19:04,VALID,1008.68,VALID,0,VALID,104,VALID,0,VALID,24.3352,VALID,53,VALID,0,
2014-08-04, 02:20:04,VALID,1008.68,VALID,0,VALID,104,VALID,0.112112,VALID,24.3158,VALID,53,VALID,0,
2014-08-04, 02:21:04,VALID,1008.66,VALID,0,VALID,104,VALID,0.112112,VALID,24.3158,VALID,53,VALID,0,
2014-08-04, 02:22:04,VALID,1008.66,VALID,0,VALID,104,VALID,0.112112,VALID,24.2981,VALID,53,VALID,0,
2014-08-04, 02:23:04,VALID,1008.67,VALID,0,VALID,104,VALID,0,VALID,24.2963,VALID,53,VALID,0,
2014-08-04, 02:24:04,VALID,1008.66,VALID,0,VALID,104,VALID,0,VALID,24.2981,VALID,53,VALID,0,
2014-08-04, 02:25:04,VALID,1008.65,VALID,0,VALID,104,VALID,0,VALID,24.2981,VALID,53,VALID,0,
2014-08-04, 02:26:04,VALID,1008.63,VALID,0,VALID,104,VALID,0.112112,VALID,24.2768,VALID,53,VALID,0,
2014-08-04, 02:27:04,VALID,1008.67,VALID,0,VALID,104,VALID,0,VALID,24.2768,VALID,53,VALID,0,
2014-08-04, 02:28:04,VALID,1008.61,VALID,0,VALID,104,VALID,0.112112,VALID,24.2768,VALID,53,VALID,0,
2014-08-04, 02:29:04,VALID,1008.64,VALID,0,VALID,104,VALID,0,VALID,24.2768,VALID,53,VALID,0,
2014-08-04, 02:30:04,VALID,1008.63,VALID,0,VALID,104,VALID,0.112112,VALID,24.2768,VALID,53,VALID,0,
2014-08-04, 02:31:04,VALID,1008.67,VALID,0,VALID,104,VALID,0.112112,VALID,24.2768,VALID,53,VALID,0,
2014-08-04, 02:32:04,VALID,1008.67,VALID,0,VALID,104,VALID,0.112112,VALID,24.2573,VALID,53,VALID,0,
2014-08-04, 02:33:04,VALID,1008.71,VALID,0,VALID,104,VALID,0,VALID,24.2591,VALID,53,VALID,0,
2014-08-04, 02:34:04,VALID,1008.74,VALID,0,VALID,104,VALID,0.112112,VALID,24.2183,VALID,53,VALID,0,
2014-08-04, 02:35:04,VALID,1008.74,VALID,0,VALID,104,VALID,0,VALID,24.2396,VALID,53,VALID,0,
2014-08-04, 02:36:04,VALID,1008.75,VALID,0,VALID,104,VALID,0,VALID,24.2396,VALID,53,VALID,0,
2014-08-04, 02:37:04,VALID,1008.77,VALID,0,VALID,104,VALID,0.112112,VALID,24.2202,VALID,53,VALID,0,
2014-08-04, 02:38:04,VALID,1008.77,VALID,0,VALID,104,VALID,0.112112,VALID,24.2396,VALID,53,VALID,0,
2014-08-04, 02:39:04,VALID,1008.76,VALID,0,VALID,104,VALID,0,VALID,24.2396,VALID,53,VALID,0,
2014-08-04, 02:40:04,VALID,1008.76,VALID,0,VALID,104,VALID,0,VALID,24.2202,VALID,53,VALID,0,
2014-08-04, 02:41:04,VALID,1008.76,VALID,0,VALID,104,VALID,0.112112,VALID,24.2007,VALID,53,VALID,0,
2014-08-04, 02:42:04,VALID,1008.73,VALID,0,VALID,104,VALID,0.112112,VALID,24.1617,VALID,53,VALID,0,
2014-08-04, 02:43:04,VALID,1008.71,VALID,0,VALID,104,VALID,0,VALID,24.1617,VALID,53,VALID,0,
2014-08-04, 02:44:04,VALID,1008.73,VALID,0,VALID,104,VALID,0.112112,VALID,24.1812,VALID,53,VALID,0,
2014-08-04, 02:45:04,VALID,1008.7,VALID,0,VALID,104,VALID,0,VALID,24.1793,VALID,53,VALID,0,
2014-08-04, 02:46:04,VALID,1008.7,VALID,0,VALID,104,VALID,0.112112,VALID,24.1988,VALID,53,VALID,0,
2014-08-04, 02:47:04,VALID,1008.69,VALID,0,VALID,104,VALID,0,VALID,24.1988,VALID,53,VALID,0,
2014-08-04, 02:48:04,VALID,1008.7,VALID,0,VALID,104,VALID,0.112112,VALID,24.2202,VALID,53,VALID,0,
2014-08-04, 02:49:04,VALID,1008.73,VALID,0,VALID,104,VALID,0,VALID,24.2396,VALID,53,VALID,0,
2014-08-04, 02:50:04,VALID,1008.71,VALID,0,VALID,104,VALID,0.112112,VALID,24.1988,VALID,53,VALID,0,
2014-08-04, 02:51:04,VALID,1008.74,VALID,0,VALID,104,VALID,0.112112,VALID,24.2202,VALID,53,VALID,0,
2014-08-04, 02:52:04,VALID,1008.73,VALID,0,VALID,104,VALID,0,VALID,24.2183,VALID,53,VALID,0,
2014-08-04, 02:53:04,VALID,1008.72,VALID,0,VALID,104,VALID,0.112112,VALID,24.2396,VALID,53,VALID,0,
2014-08-04, 02:54:04,VALID,1008.71,VALID,0,VALID,104,VALID,0,VALID,24.1988,VALID,53,VALID,0,
2014-08-04, 02:55:04,VALID,1008.73,VALID,0,VALID,104,VALID,0.112112,VALID,24.2396,VALID,53,VALID,0,
2014-08-04, 02:56:04,VALID,1008.7,VALID,0,VALID,104,VALID,0,VALID,24.2396,VALID,53,VALID,0,
2014-08-04, 02:57:04,VALID,1008.7,VALID,0,VALID,104,VALID,0,VALID,24.2378,VALID,53,VALID,0,
2014-08-04, 02:58:04,VALID,1008.69,VALID,0,VALID,104,VALID,0,VALID,24.2591,VALID,53,VALID,0,
2014-08-04, 02:59:04,VALID,1008.67,VALID,0,VALID,104,VALID,0,VALID,24.2786,VALID,53,VALID,0,
2014-08-04, 03:00:04,VALID,1008.66,VALID,0,VALID,104,VALID,0,VALID,24.2786,VALID,53,VALID,0,
2014-08-04, 03:01:04,VALID,1008.65,VALID,0,VALID,104,VALID,0,VALID,24.3194,VALID,53,VALID,0,
2014-08-04, 03:02:04,VALID,1008.65,VALID,0,VALID,104,VALID,0,VALID,24.2786,VALID,53,VALID,0,
2014-08-04, 03:03:04,VALID,1008.66,VALID,0,VALID,104,VALID,0,VALID,24.2981,VALID,53,VALID,0,
2014-08-04, 03:04:04,VALID,1008.66,VALID,0,VALID,104,VALID,0,VALID,24.2981,VALID,53,VALID,0,
2014-08-04, 03:05:04,VALID,1008.67,VALID,0,VALID,104,VALID,0,VALID,24.2981,VALID,53,VALID,0,
2014-08-04, 03:06:04,VALID,1008.66,VALID,0,VALID,104,VALID,0.112112,VALID,24.3176,VALID,53,VALID,0,
2014-08-04, 03:07:04,VALID,1008.66,VALID,0,VALID,104,VALID,0.112112,VALID,24.3176,VALID,53,VALID,0,
2014-08-04, 03:08:04,VALID,1008.64,VALID,0,VALID,104,VALID,0,VALID,24.3176,VALID,53,VALID,0,
2014-08-04, 03:09:04,VALID,1008.62,VALID,0,VALID,104,VALID,0,VALID,24.2963,VALID,53,VALID,0,
2014-08-04, 03:10:04,VALID,1008.59,VALID,0,VALID,104,VALID,0.112112,VALID,24.3176,VALID,53,VALID,0,
2014-08-04, 03:11:04,VALID,1008.58,VALID,0,VALID,104,VALID,0.112112,VALID,24.3176,VALID,53,VALID,0,
2014-08-04, 03:12:04,VALID,1008.56,VALID,0,VALID,104,VALID,0.112112,VALID,24.3176,VALID,53,VALID,0,
2014-08-04, 03:13:04,VALID,1008.54,VALID,0,VALID,104,VALID,0,VALID,24.3176,VALID,53,VALID,0,
2014-08-04, 03:14:04,VALID,1008.57,VALID,0,VALID,104,VALID,0,VALID,24.3158,VALID,53,VALID,0,
2014-08-04, 03:15:04,VALID,1008.6,VALID,0,VALID,104,VALID,0,VALID,24.3371,VALID,53,VALID,0,
2014-08-04, 03:16:04,VALID,1008.61,VALID,0,VALID,104,VALID,0.112112,VALID,24.2963,VALID,53,VALID,0,
2014-08-04, 03:17:04,VALID,1008.64,VALID,0,VALID,104,VALID,0.112112,VALID,24.3371,VALID,53,VALID,0,
2014-08-04, 03:18:04,VALID,1008.66,VALID,0,VALID,104,VALID,0.112112,VALID,24.2963,VALID,53,VALID,0,
2014-08-04, 03:19:04,VALID,1008.65,VALID,0,VALID,104,VALID,0.112112,VALID,24.3176,VALID,53,VALID,0,
2014-08-04, 03:20:04,VALID,1008.66,VALID,0,VALID,104,VALID,0,VALID,24.3371,VALID,53,VALID,0,
2014-08-04, 03:21:04,VALID,1008.67,VALID,0,VALID,104,VALID,0,VALID,24.3371,VALID,53,VALID,0,
2014-08-04, 03:22:04,VALID,1008.67,VALID,0,VALID,104,VALID,0.112112,VALID,24.3352,VALID,53,VALID,0,
2014-08-04, 03:23:04,VALID,1008.68,VALID,0,VALID,104,VALID,0.112112,VALID,24.3352,VALID,53,VALID,0,
2014-08-04, 03:24:04,VALID,1008.68,VALID,0,VALID,104,VALID,0.112112,VALID,24.3371,VALID,53,VALID,0,
2014-08-04, 03:25:04,VALID,1008.69,VALID,0,VALID,104,VALID,0.112112,VALID,24.3158,VALID,53,VALID,0,
2014-08-04, 03:26:04,VALID,1008.67,VALID,0,VALID,104,VALID,0,VALID,24.3371,VALID,53,VALID,0,
2014-08-04, 03:27:04,VALID,1008.65,VALID,0,VALID,104,VALID,0,VALID,24.3158,VALID,53,VALID,0,
2014-08-04, 03:28:04,VALID,1008.66,VALID,0,VALID,104,VALID,0,VALID,24.3566,VALID,53,VALID,0,
2014-08-04, 03:29:04,VALID,1008.66,VALID,0,VALID,104,VALID,0,VALID,24.3371,VALID,53,VALID,0,
2014-08-04, 03:30:04,VALID,1008.63,VALID,0,VALID,104,VALID,0,VALID,24.3566,VALID,53,VALID,0,
2014-08-04, 03:31:04,VALID,1008.62,VALID,0,VALID,104,VALID,0.112112,VALID,24.3566,VALID,53,VALID,0,
2014-08-04, 03:32:04,VALID,1008.62,VALID,0,VALID,104,VALID,0,VALID,24.3566,VALID,53,VALID,0,
2014-08-04, 03:33:04,VALID,1008.6,VALID,0,VALID,104,VALID,0.112112,VALID,24.3566,VALID,53,VALID,0,
2014-08-04, 03:34:04,VALID,1008.59,VALID,0,VALID,104,VALID,0.112112,VALID,24.3566,VALID,53,VALID,0,
2014-08-04, 03:35:04,VALID,1008.57,VALID,0,VALID,104,VALID,0.112112,VALID,24.3566,VALID,53,VALID,0,
2014-08-04, 03:36:04,VALID,1008.56,VALID,0,VALID,104,VALID,0.112112,VALID,24.3547,VALID,53,VALID,0,
2014-08-04, 03:37:04,VALID,1008.55,VALID,0,VALID,104,VALID,0.112112,VALID,24.3566,VALID,53,VALID,0,
2014-08-04, 03:38:04,VALID,1008.54,VALID,0,VALID,104,VALID,0.112112,VALID,24.3761,VALID,53,VALID,0,
2014-08-04, 03:39:04,VALID,1008.56,VALID,0,VALID,104,VALID,0.112112,VALID,24.3956,VALID,53,VALID,0,
2014-08-04, 03:40:04,VALID,1008.56,VALID,0,VALID,104,VALID,0,VALID,24.3956,VALID,53,VALID,0,
2014-08-04, 03:41:04,VALID,1008.57,VALID,0,VALID,104,VALID,0.112112,VALID,24.3956,VALID,53,VALID,0,
2014-08-04, 03:42:04,VALID,1008.57,VALID,0,VALID,104,VALID,0,VALID,24.3956,VALID,53,VALID,0,
2014-08-04, 03:43:04,VALID,1008.59,VALID,0,VALID,104,VALID,0.112112,VALID,24.3937,VALID,53,VALID,0,
2014-08-04, 03:44:04,VALID,1008.6,VALID,0,VALID,104,VALID,0.112112,VALID,24.3937,VALID,53,VALID,0,
2014-08-04, 03:45:04,VALID,1008.59,VALID,0,VALID,104,VALID,0.112112,VALID,24.415,VALID,53,VALID,0,
2014-08-04, 03:46:04,VALID,1008.6,VALID,0,VALID,104,VALID,0,VALID,24.415,VALID,53,VALID,0,
2014-08-04, 03:47:04,VALID,1008.62,VALID,0,VALID,104,VALID,0,VALID,24.3937,VALID,53,VALID,0,
2014-08-04, 03:48:04,VALID,1008.61,VALID,0,VALID,104,VALID,0,VALID,24.415,VALID,53,VALID,0,
2014-08-04, 03:49:04,VALID,1008.64,VALID,0,VALID,104,VALID,0,VALID,24.415,VALID,53,VALID,0,
2014-08-04, 03:50:04,VALID,1008.62,VALID,0,VALID,104,VALID,0,VALID,24.4345,VALID,53,VALID,0,
2014-08-04, 03:51:04,VALID,1008.63,VALID,0,VALID,104,VALID,0.112112,VALID,24.415,VALID,53,VALID,0,
2014-08-04, 03:52:04,VALID,1008.62,VALID,0,VALID,104,VALID,0,VALID,24.415,VALID,53,VALID,0,
2014-08-04, 03:53:04,VALID,1008.65,VALID,0,VALID,104,VALID,0,VALID,24.3956,VALID,53,VALID,0,
2014-08-04, 03:54:04,VALID,1008.63,VALID,0,VALID,104,VALID,0,VALID,24.3956,VALID,53,VALID,0,
2014-08-04, 03:55:04,VALID,1008.63,VALID,0,VALID,104,VALID,0,VALID,24.415,VALID,53,VALID,0,
2014-08-04, 03:56:04,VALID,1008.64,VALID,0,VALID,104,VALID,0,VALID,24.454,VALID,53,VALID,0,
2014-08-04, 03:57:04,VALID,1008.62,VALID,0,VALID,104,VALID,0,VALID,24.454,VALID,53,VALID,0,
2014-08-04, 03:58:04,VALID,1008.58,VALID,0,VALID,104,VALID,0,VALID,24.454,VALID,53,VALID,0,
2014-08-04, 03:59:04,VALID,1008.58,VALID,0,VALID,104,VALID,0,VALID,24.4345,VALID,53,VALID,0,
2014-08-04, 04:00:04,VALID,1008.58,VALID,0,VALID,104,VALID,0,VALID,24.4345,VALID,53,VALID,0,
2014-08-04, 04:01:04,VALID,1008.59,VALID,0,VALID,104,VALID,0,VALID,24.4345,VALID,53,VALID,0,
2014-08-04, 04:02:04,VALID,1008.61,VALID,0,VALID,104,VALID,0,VALID,24.3937,VALID,53,VALID,0,
2014-08-04, 04:03:04,VALID,1008.61,VALID,0,VALID,104,VALID,0,VALID,24.3956,VALID,53,VALID,0,
2014-08-04, 04:04:04,VALID,1008.68,VALID,0,VALID,104,VALID,0,VALID,24.3761,VALID,53,VALID,0,